• Processing (Info)

  • MPEC 2012-T07 : P/1996 A1 = 2012 R2 (Jedicke)

    The following Minor Planet Electronic Circular may be linked-to from your own Web pages, but must not otherwise be redistributed electronically.

    A form allowing access to any MPEC is at the bottom of this page.


    Read MPEC 2012-T06 Read MPEC 2012-T08


    M.P.E.C. 2012-T07                                Issued 2012 Oct. 3, 17:22 UT
    
         The Minor Planet Electronic Circulars contain information on unusual
             minor planets and routine data on comets.  They are published
       on behalf of Commission 20 of the International Astronomical Union by the
              Minor Planet Center, Smithsonian Astrophysical Observatory,
                              Cambridge, MA 02138, U.S.A.
    
                 Prepared using the Tamkin Foundation Computer Network
    
                                  MPC@CFA.HARVARD.EDU
                URL https://www.minorplanetcenter.net/    ISSN 1523-6714
    
                             P/1996 A1 = 2012 R2 (Jedicke)
    
    Observations:
        PJ96A010  C1993 10 12.27110 02 15 17.81 +18 27 23.9          19.3 TiET007691
        PJ96A010  C1993 10 12.29012 02 15 17.30 +18 27 20.9                iET007691
        PJ96A010  C1993 10 12.30925 02 15 16.77 +18 27 20.3                iET007691
        PK12R020  C2012 09 11.86458 01 47 52.32 +16 52 09.1                vET007188
        PK12R020  C2012 09 11.86948 01 47 52.24 +16 52 08.7          20.9 TvET007188
        PK12R020  C2012 09 11.87436 01 47 52.18 +16 52 08.4                vET007188
        PK12R020  C2012 09 11.88010 01 47 52.09 +16 52 08.0                vET007188
        PK12R020  C2012 09 25.42333 01 43 38.68 +16 31 35.3          20.7 ToET007691
        PK12R020  C2012 09 25.44102 01 43 38.30 +16 31 32.9          21.3 ToET007691
        PK12R020  C2012 09 25.45871 01 43 37.94 +16 31 30.9          21.3 ToET007691
    
    Observer details:
    188 Majdanak.  Observer O. Burhonov.  Measurer A. Novichonok.  1.5-m f/8
        Ritchey-Chretien + CCD.
    691 Steward Observatory, Kitt Peak.  Observers T. Gehrels, T. H. Bressi.
        0.9-m f/3 reflector + CCD.
    
    Orbital elements:
        P/1996 A1 = 2012 R2 (Jedicke)
    Epoch 2014 Oct. 30.0 TT = JDT 2456960.5
    T 2014 Nov. 14.61087 TT                                 MPC
    q   4.0793199            (2000.0)            P               Q
    n   0.04971064     Peri.  223.36989     -0.37175851     -0.92212684
    a   7.3254870      Node   248.71637     +0.88004591     -0.31333426
    e   0.4431333      Incl.    6.60224     +0.29549078     -0.22694436
    P  19.83
    From 326 observations 1993 Oct. 12-2012 Sept. 25, mean residual 0".59.
    
        P/1996 A1 = 2012 R2 (Jedicke)
    Epoch 1995 Aug. 31.0 TT = JDT 2449960.5
    T 1995 Aug. 15.86832 TT                                 MPC
    q   4.0551262            (2000.0)            P               Q
    n   0.05105234     Peri.  224.12083     -0.39188057     -0.91367977
    a   7.1965707      Node   249.22130     +0.87280629     -0.33216213
    e   0.4365196      Incl.    6.62033     +0.29092748     -0.23421698
    P  19.31
    From 326 observations 1993 Oct. 12-2012 Sept. 25, mean residual 0".59.
    
